QPF
0.09 0.10 0.13 0.20 0.26 0.36 0.40 0.39 0.37 0.41 0.46 0.36 0.25 0.19 0.14 0.14 0.12 0.09 0.07 0.06 0.05 0.04 0.03 0.03 0.03 0.02 0.02 0.02 0.01 0.01 0.01 0.00 0.00 0.00 0.00 0.00 0.00 0.00 0.00 0.00 0.00 0.00 0.00
0.05 0.07 0.10 0.13 0.17 0.26 0.36 0.41 0.43 0.45 0.50 0.46 0.36 0.28 0.25 0.23 0.21 0.19 0.15 0.13 0.10 0.06 0.04 0.04 0.03 0.03 0.03 0.03 0.02 0.02 0.01 0.01 0.01 0.01 0.01 0.00 0.00 0.00 0.00 0.00 0.00 0.00 0.00
0.03 0.04 0.06 0.09 0.12 0.15 0.23 0.33 0.39 0.43 0.48 0.52 0.53 0.51 0.44 0.34 0.27 0.25 0.24 0.22 0.19 0.14 0.12 0.10 0.08 0.06 0.04 0.03 0.03 0.03 0.02 0.01 0.01 0.01 0.02 0.01 0.00 0.00 0.00 0.00 0.00 0.00 0.00
0.02 0.03 0.04 0.06 0.09 0.11 0.16 0.23 0.31 0.38 0.43 0.46 0.50 0.50 0.44 0.35 0.28 0.27 0.28 0.28 0.26 0.23 0.20 0.16 0.11 0.09 0.07 0.05 0.05 0.03 0.03 0.03 0.02 0.03 0.02 0.02 0.01 0.01 0.01 0.00 0.00 0.00 0.00
0.01 0.02 0.03 0.04 0.06 0.09 0.13 0.18 0.26 0.31 0.36 0.39 0.38 0.41 0.42 0.39 0.36 0.33 0.30 0.27 0.25 0.23 0.20 0.19 0.15 0.11 0.08 0.06 0.05 0.04 0.04 0.03 0.03 0.02 0.02 0.02 0.02 0.03 0.03 0.02 0.01 0.01 0.01
0.01 0.01 0.02 0.03 0.04 0.06 0.09 0.13 0.22 0.30 0.32 0.34 0.34 0.36 0.37 0.37 0.36 0.34 0.30 0.28 0.25 0.21 0.19 0.17 0.16 0.14 0.11 0.09 0.07 0.05 0.04 0.03 0.03 0.02 0.02 0.03 0.04 0.04 0.05 0.05 0.03 0.02 0.01
0.01 0.01 0.01 0.02 0.02 0.04 0.06 0.08 0.11 0.17 0.23 0.29 0.33 0.32 0.34 0.34 0.30 0.29 0.29 0.30 0.28 0.22 0.19 0.19 0.17 0.16 0.14 0.11 0.09 0.06 0.04 0.04 0.04 0.03 0.03 0.04 0.04 0.05 0.05 0.05 0.04 0.03 0.02
0.00 0.00 0.00 0.01 0.02 0.02 0.04 0.05 0.07 0.07 0.10 0.15 0.18 0.20 0.24 0.26 0.25 0.23 0.21 0.21 0.21 0.19 0.18 0.18 0.16 0.15 0.13 0.12 0.10 0.08 0.06 0.05 0.05 0.05 0.05 0.04 0.05 0.05 0.05 0.05 0.05 0.04 0.02
0.00 0.00 0.00 0.01 0.02 0.02 0.03 0.03 0.04 0.05 0.06 0.09 0.11 0.12 0.13 0.14 0.14 0.14 0.13 0.13 0.14 0.14 0.13 0.12 0.11 0.11 0.11 0.11 0.11 0.10 0.09 0.07 0.06 0.06 0.05 0.05 0.04 0.04 0.04 0.03 0.04 0.04 0.03
0.00 0.00 0.00 0.01 0.01 0.01 0.02 0.02 0.03 0.04 0.04 0.05 0.06 0.07 0.09 0.10 0.11 0.11 0.10 0.11 0.11 0.11 0.11 0.10 0.09 0.08 0.08 0.08 0.10 0.09 0.09 0.08 0.06 0.05 0.04 0.04 0.04 0.03 0.03 0.02 0.03 0.04 0.04
0.00 0.00 0.00 0.00 0.01 0.01 0.01 0.02 0.02 0.02 0.02 0.03 0.04 0.03 0.04 0.05 0.06 0.08 0.08 0.08 0.09 0.09 0.08 0.08 0.07 0.07 0.06 0.06 0.06 0.07 0.07 0.08 0.08 0.06 0.04 0.03 0.03 0.02 0.02 0.02 0.02 0.03 0.03
0.00 0.00 0.01 0.00 0.00 0.01 0.01 0.01 0.01 0.02 0.02 0.02 0.02 0.02 0.02 0.03 0.03 0.04 0.05 0.05 0.06 0.06 0.06 0.06 0.05 0.04 0.04 0.04 0.03 0.03 0.04 0.04 0.04 0.05 0.05 0.04 0.03 0.02 0.02 0.02 0.02 0.02 0.02
0.00 0.00 0.00 0.01 0.01 0.01 0.00 0.01 0.01 0.01 0.01 0.01 0.01 0.01 0.02 0.02 0.02 0.02 0.03 0.03 0.03 0.03 0.03 0.03 0.02 0.02 0.02 0.02 0.01 0.01 0.02 0.02 0.02 0.02 0.03 0.03 0.03 0.02 0.02 0.02 0.02 0.02 0.02
0.01 0.00 0.00 0.00 0.00 0.00 0.00 0.01 0.01 0.01 0.01 0.01 0.01 0.01 0.01 0.01 0.01 0.01 0.01 0.01 0.02 0.02 0.02 0.02 0.02 0.02 0.02 0.02 0.01 0.01 0.01 0.01 0.01 0.01 0.01 0.02 0.02 0.01 0.01 0.01 0.01 0.01 0.01
0.00 0.01 0.01 0.01 0.00 0.00 0.00 0.00 0.01 0.01 0.01 0.01 0.01 0.01 0.01 0.01 0.01 0.01 0.01 0.01 0.01 0.01 0.02 0.02 0.02 0.02 0.02 0.01 0.01 0.01 0.01 0.01 0.01 0.01 0.01 0.01 0.01 0.01 0.01 0.01 0.01 0.01 0.01
0.00 0.00 0.00 0.01 0.00 0.00 0.00 0.00 0.00 0.00 0.01 0.01 0.01 0.01 0.01 0.01 0.01 0.01 0.01 0.01 0.01 0.02 0.02 0.02 0.02 0.02 0.02 0.02 0.02 0.02 0.02 0.01 0.01 0.01 0.01 0.01 0.01 0.00 0.00 0.00 0.00 0.00 0.00
0.00 0.00 0.00 0.01 0.01 0.01 0.01 0.00 0.00 0.00 0.00 0.00 0.01 0.01 0.01 0.01 0.01 0.01 0.01 0.01 0.01 0.02 0.02 0.02 0.02 0.02 0.02 0.02 0.02 0.02 0.01 0.01 0.01 0.01 0.01 0.00 0.00 0.00 0.00 0.00 0.00 0.00 0.00
0.01 0.01 0.01 0.01 0.01 0.01 0.00 0.00 0.01 0.01 0.00 0.00 0.01 0.01 0.01 0.01 0.02 0.02 0.02 0.02 0.02 0.02 0.02 0.03 0.03 0.03 0.02 0.02 0.02 0.02 0.01 0.01 0.01 0.01 0.01 0.01 0.00 0.00 0.00 0.00 0.00 0.00 0.00
0.01 0.01 0.01 0.01 0.01 0.01 0.00 0.01 0.01 0.01 0.01 0.00 0.01 0.01 0.01 0.02 0.02 0.02 0.01 0.01 0.01 0.01 0.01 0.02 0.03 0.03 0.03 0.02 0.02 0.02 0.02 0.02 0.01 0.01 0.01 0.00 0.00 0.00 0.00 0.00 0.00 0.00 0.00
0.01 0.01 0.01 0.01 0.01 0.01 0.01 0.01 0.01 0.01 0.01 0.01 0.01 0.01 0.01 0.01 0.01 0.01 0.01 0.02 0.02 0.01 0.01 0.01 0.02 0.02 0.02 0.02 0.01 0.01 0.01 0.01 0.01 0.01 0.00 0.00 0.00 0.00 0.00 0.00 0.00 0.00 0.00
0.02 0.02 0.01 0.01 0.02 0.02 0.02 0.01 0.01 0.01 0.01 0.01 0.01 0.01 0.01 0.01 0.01 0.01 0.02 0.02 0.02 0.02 0.02 0.01 0.01 0.01 0.01 0.01 0.00 0.00 0.00 0.00 0.00 0.00 0.00 0.00 0.00 0.00 0.00 0.00 0.00 0.00 0.00
0.02 0.02 0.02 0.01 0.02 0.02 0.03 0.03 0.02 0.02 0.02 0.02 0.02 0.02 0.02 0.01 0.01 0.01 0.02 0.02 0.02 0.02 0.02 0.01 0.01 0.01 0.01 0.01 0.00 0.00 0.00 0.00 0.00 0.00 0.00 0.00 0.00 0.00 0.00 0.00 0.00 0.00 0.00
0.02 0.01 0.01 0.01 0.01 0.02 0.03 0.03 0.02 0.03 0.03 0.02 0.03 0.03 0.03 0.03 0.03 0.02 0.02 0.02 0.02 0.02 0.01 0.01 0.01 0.01 0.01 0.01 0.00 0.00 0.00 0.00 0.00 0.00 0.00 0.00 0.00 0.00 0.00 0.00 0.00 0.00 0.00
0.02 0.02 0.01 0.01 0.01 0.01 0.01 0.02 0.02 0.02 0.03 0.03 0.03 0.03 0.03 0.02 0.02 0.02 0.03 0.03 0.03 0.03 0.02 0.02 0.01 0.01 0.00 0.00 0.00 0.00 0.00 0.00 0.00 0.00 0.00 0.01 0.01 0.00 0.00 0.00 0.00 0.00 0.00
0.03 0.02 0.02 0.02 0.02 0.02 0.02 0.02 0.02 0.02 0.02 0.03 0.03 0.03 0.03 0.03 0.03 0.03 0.03 0.03 0.04 0.04 0.03 0.02 0.02 0.01 0.00 0.00 0.00 0.00 0.00 0.00 0.00 0.00 0.01 0.01 0.01 0.01 0.00 0.01 0.00 0.00 0.00
0.02 0.03 0.02 0.02 0.02 0.02 0.02 0.02 0.02 0.02 0.02 0.02 0.02 0.02 0.03 0.03 0.03 0.04 0.03 0.03 0.03 0.03 0.03 0.02 0.01 0.01 0.01 0.01 0.01 0.01 0.01 0.01 0.01 0.01 0.00 0.00 0.01 0.00 0.00 0.01 0.01 0.01 0.01
MSLP
1008.70 1008.64 1008.52 1008.39 1008.29 1008.26 1008.36 1008.60 1009.02 1009.59 1010.29 1011.08 1011.91 1012.73 1013.51 1014.21 1014.80 1015.30 1015.71 1016.06 1016.37 1016.67 1017.00 1017.35 1017.76 1018.19 1018.65 1019.11 1019.56 1019.97 1020.32 1020.59 1020.79 1020.89 1020.92 1020.87 1020.76 1020.60 1020.43 1020.26 1020.12 1020.02 1019.96
1008.72 1008.75 1008.70 1008.59 1008.45 1008.35 1008.34 1008.45 1008.74 1009.20 1009.82 1010.57 1011.39 1012.24 1013.06 1013.81 1014.46 1014.99 1015.43 1015.79 1016.10 1016.40 1016.69 1017.03 1017.40 1017.80 1018.24 1018.69 1019.13 1019.55 1019.91 1020.22 1020.45 1020.60 1020.67 1020.65 1020.56 1020.42 1020.24 1020.05 1019.88 1019.75 1019.67
1008.55 1008.64 1008.64 1008.55 1008.41 1008.26 1008.18 1008.21 1008.40 1008.78 1009.34 1010.05 1010.87 1011.74 1012.60 1013.40 1014.11 1014.70 1015.17 1015.56 1015.88 1016.16 1016.44 1016.74 1017.07 1017.43 1017.82 1018.24 1018.67 1019.08 1019.47 1019.80 1020.08 1020.28 1020.40 1020.43 1020.39 1020.27 1020.10 1019.91 1019.73 1019.58 1019.48
1008.19 1008.33 1008.37 1008.32 1008.20 1008.05 1007.94 1007.93 1008.07 1008.40 1008.91 1009.60 1010.42 1011.30 1012.20 1013.04 1013.80 1014.44 1014.97 1015.39 1015.72 1016.01 1016.27 1016.54 1016.82 1017.14 1017.48 1017.86 1018.26 1018.66 1019.05 1019.42 1019.74 1020.00 1020.18 1020.27 1020.27 1020.18 1020.04 1019.86 1019.68 1019.52 1019.41
1007.74 1007.90 1007.99 1007.98 1007.90 1007.79 1007.69 1007.68 1007.81 1008.11 1008.61 1009.28 1010.08 1010.97 1011.89 1012.77 1013.57 1014.26 1014.83 1015.29 1015.65 1015.95 1016.21 1016.45 1016.70 1016.98 1017.28 1017.62 1017.98 1018.37 1018.76 1019.15 1019.51 1019.81 1020.04 1020.18 1020.23 1020.19 1020.07 1019.90 1019.72 1019.56 1019.44
1007.29 1007.47 1007.60 1007.65 1007.64 1007.58 1007.53 1007.55 1007.69 1007.99 1008.46 1009.11 1009.90 1010.78 1011.69 1012.59 1013.42 1014.15 1014.76 1015.26 1015.66 1015.99 1016.26 1016.50 1016.74 1016.99 1017.26 1017.56 1017.89 1018.26 1018.65 1019.04 1019.42 1019.75 1020.02 1020.20 1020.29 1020.28 1020.18 1020.03 1019.85 1019.68 1019.54
1006.96 1007.15 1007.32 1007.44 1007.49 1007.51 1007.52 1007.58 1007.74 1008.04 1008.51 1009.12 1009.88 1010.73 1011.62 1012.51 1013.35 1014.10 1014.75 1015.30 1015.74 1016.11 1016.41 1016.68 1016.92 1017.16 1017.42 1017.70 1018.01 1018.35 1018.73 1019.11 1019.50 1019.84 1020.13 1020.34 1020.45 1020.46 1020.38 1020.23 1020.04 1019.85 1019.69
1006.83 1007.03 1007.24 1007.42 1007.55 1007.63 1007.71 1007.81 1007.99 1008.29 1008.73 1009.31 1010.01 1010.81 1011.66 1012.52 1013.35 1014.11 1014.78 1015.37 1015.87 1016.28 1016.64 1016.94 1017.21 1017.47 1017.73 1018.00 1018.30 1018.63 1018.98 1019.35 1019.72 1020.06 1020.35 1020.56 1020.68 1020.69 1020.62 1020.47 1020.27 1020.07 1019.88
1006.95 1007.17 1007.42 1007.65 1007.84 1007.98 1008.10 1008.24 1008.43 1008.72 1009.12 1009.64 1010.28 1011.01 1011.80 1012.61 1013.40 1014.16 1014.84 1015.46 1016.00 1016.48 1016.89 1017.25 1017.56 1017.86 1018.14 1018.42 1018.71 1019.03 1019.36 1019.70 1020.04 1020.36 1020.63 1020.83 1020.94 1020.96 1020.88 1020.73 1020.52 1020.29 1020.08
1007.34 1007.58 1007.86 1008.12 1008.35 1008.54 1008.69 1008.84 1009.03 1009.29 1009.64 1010.11 1010.67 1011.32 1012.03 1012.78 1013.52 1014.25 1014.93 1015.57 1016.15 1016.67 1017.14 1017.55 1017.92 1018.26 1018.57 1018.88 1019.17 1019.47 1019.78 1020.10 1020.41 1020.69 1020.93 1021.11 1021.21 1021.22 1021.13 1020.97 1020.76 1020.52 1020.28
1007.97 1008.22 1008.52 1008.80 1009.05 1009.26 1009.42 1009.58 1009.75 1009.98 1010.28 1010.67 1011.16 1011.73 1012.36 1013.03 1013.72 1014.41 1015.07 1015.71 1016.30 1016.86 1017.37 1017.83 1018.25 1018.64 1018.98 1019.30 1019.60 1019.90 1020.19 1020.47 1020.74 1020.99 1021.20 1021.35 1021.43 1021.43 1021.34 1021.18 1020.97 1020.73 1020.48
1008.76 1009.02 1009.31 1009.60 1009.85 1010.06 1010.23 1010.37 1010.53 1010.73 1010.99 1011.33 1011.75 1012.24 1012.80 1013.40 1014.02 1014.66 1015.28 1015.90 1016.49 1017.05 1017.59 1018.08 1018.53 1018.95 1019.32 1019.66 1019.97 1020.25 1020.52 1020.77 1021.01 1021.22 1021.39 1021.51 1021.57 1021.57 1021.48 1021.34 1021.14 1020.90 1020.65
1009.61 1009.86 1010.14 1010.42 1010.66 1010.86 1011.02 1011.16 1011.31 1011.49 1011.73 1012.03 1012.41 1012.85 1013.35 1013.88 1014.45 1015.02 1015.60 1016.17 1016.73 1017.28 1017.81 1018.30 1018.77 1019.20 1019.58 1019.93 1020.24 1020.51 1020.76 1020.98 1021.18 1021.35 1021.49 1021.59 1021.64 1021.62 1021.55 1021.42 1021.24 1021.03 1020.80
1010.43 1010.66 1010.92 1011.17 1011.40 1011.58 1011.73 1011.87 1012.03 1012.21 1012.45 1012.75 1013.11 1013.53 1013.99 1014.47 1014.98 1015.50 1016.02 1016.53 1017.05 1017.55 1018.05 1018.52 1018.98 1019.40 1019.78 1020.12 1020.41 1020.67 1020.90 1021.09 1021.25 1021.39 1021.50 1021.57 1021.61 1021.60 1021.54 1021.43 1021.28 1021.10 1020.89
1011.16 1011.35 1011.57 1011.79 1011.98 1012.15 1012.30 1012.45 1012.63 1012.84 1013.11 1013.43 1013.80 1014.22 1014.67 1015.13 1015.60 1016.07 1016.53 1016.98 1017.43 1017.88 1018.32 1018.75 1019.17 1019.56 1019.91 1020.23 1020.51 1020.75 1020.95 1021.11 1021.24 1021.35 1021.43 1021.49 1021.51 1021.50 1021.45 1021.36 1021.25 1021.10 1020.93
1011.75 1011.89 1012.05 1012.22 1012.38 1012.53 1012.68 1012.86 1013.07 1013.33 1013.64 1014.01 1014.42 1014.87 1015.33 1015.78 1016.23 1016.66 1017.07 1017.47 1017.85 1018.23 1018.61 1018.98 1019.35 1019.69 1020.01 1020.30 1020.55 1020.76 1020.93 1021.07 1021.17 1021.25 1021.31 1021.34 1021.35 1021.35 1021.31 1021.24 1021.15 1021.04 1020.91
1012.21 1012.27 1012.36 1012.47 1012.59 1012.72 1012.88 1013.08 1013.33 1013.65 1014.02 1014.44 1014.91 1015.39 1015.88 1016.35 1016.79 1017.20 1017.58 1017.93 1018.26 1018.58 1018.89 1019.20 1019.50 1019.79 1020.07 1020.32 1020.53 1020.72 1020.86 1020.97 1021.05 1021.11 1021.14 1021.16 1021.17 1021.16 1021.13 1021.08 1021.02 1020.94 1020.85
1012.56 1012.53 1012.54 1012.59 1012.66 1012.77 1012.93 1013.14 1013.43 1013.78 1014.21 1014.68 1015.20 1015.73 1016.25 1016.75 1017.20 1017.60 1017.97 1018.29 1018.58 1018.85 1019.11 1019.36 1019.61 1019.85 1020.08 1020.29 1020.47 1020.62 1020.74 1020.83 1020.89 1020.93 1020.96 1020.97 1020.97 1020.96 1020.94 1020.91 1020.87 1020.82 1020.76
1012.86 1012.74 1012.67 1012.64 1012.67 1012.74 1012.89 1013.10 1013.40 1013.78 1014.23 1014.75 1015.29 1015.86 1016.41 1016.93 1017.40 1017.81 1018.17 1018.48 1018.76 1019.00 1019.22 1019.44 1019.64 1019.84 1020.03 1020.20 1020.35 1020.48 1020.57 1020.65 1020.70 1020.73 1020.75 1020.76 1020.77 1020.77 1020.77 1020.76 1020.74 1020.71 1020.67
1013.15 1012.95 1012.80 1012.71 1012.68 1012.72 1012.84 1013.04 1013.33 1013.70 1014.15 1014.67 1015.22 1015.79 1016.35 1016.89 1017.37 1017.80 1018.17 1018.49 1018.76 1018.99 1019.20 1019.39 1019.57 1019.74 1019.90 1020.04 1020.16 1020.27 1020.35 1020.42 1020.47 1020.50 1020.53 1020.55 1020.57 1020.59 1020.61 1020.62 1020.63 1020.62 1020.61
1013.47 1013.20 1013.00 1012.86 1012.78 1012.78 1012.86 1013.02 1013.28 1013.62 1014.03 1014.52 1015.04 1015.59 1016.14 1016.67 1017.16 1017.59 1017.98 1018.31 1018.59 1018.83 1019.04 1019.22 1019.38 1019.53 1019.67 1019.79 1019.89 1019.98 1020.06 1020.12 1020.18 1020.22 1020.27 1020.31 1020.36 1020.41 1020.45 1020.50 1020.53 1020.56 1020.58
1013.82 1013.52 1013.28 1013.10 1012.99 1012.96 1013.00 1013.12 1013.32 1013.60 1013.95 1014.37 1014.84 1015.33 1015.84 1016.34 1016.81 1017.25 1017.64 1017.98 1018.27 1018.52 1018.73 1018.92 1019.07 1019.21 1019.33 1019.43 1019.53 1019.61 1019.68 1019.75 1019.81 1019.88 1019.95 1020.02 1020.10 1020.19 1020.27 1020.35 1020.43 1020.50 1020.55
1014.17 1013.85 1013.61 1013.43 1013.31 1013.26 1013.27 1013.34 1013.48 1013.69 1013.96 1014.30 1014.68 1015.10 1015.54 1015.98 1016.42 1016.83 1017.21 1017.55 1017.85 1018.11 1018.33 1018.51 1018.66 1018.78 1018.89 1018.98 1019.06 1019.13 1019.20 1019.27 1019.35 1019.43 1019.53 1019.64 1019.76 1019.88 1020.01 1020.14 1020.26 1020.37 1020.47
1014.45 1014.16 1013.94 1013.78 1013.68 1013.63 1013.63 1013.67 1013.76 1013.90 1014.09 1014.33 1014.62 1014.95 1015.30 1015.67 1016.05 1016.43 1016.78 1017.10 1017.39 1017.64 1017.85 1018.02 1018.16 1018.27 1018.36 1018.43 1018.49 1018.55 1018.62 1018.69 1018.78 1018.88 1019.00 1019.14 1019.30 1019.46 1019.63 1019.80 1019.97 1020.13 1020.27
1014.63 1014.38 1014.21 1014.11 1014.04 1014.02 1014.02 1014.06 1014.11 1014.20 1014.32 1014.48 1014.68 1014.91 1015.18 1015.47 1015.77 1016.08 1016.39 1016.67 1016.93 1017.15 1017.34 1017.49 1017.61 1017.70 1017.76 1017.81 1017.86 1017.90 1017.96 1018.03 1018.11 1018.23 1018.36 1018.52 1018.70 1018.89 1019.10 1019.31 1019.51 1019.71 1019.90
1014.66 1014.48 1014.37 1014.32 1014.32 1014.34 1014.38 1014.43 1014.48 1014.54 1014.62 1014.72 1014.84 1014.99 1015.17 1015.38 1015.61 1015.84 1016.08 1016.31 1016.52 1016.70 1016.85 1016.97 1017.05 1017.11 1017.15 1017.17 1017.19 1017.21 1017.25 1017.31 1017.39 1017.50 1017.64 1017.80 1017.98 1018.19 1018.41 1018.63 1018.86 1019.08 1019.30
Thickness
5623 5631 5638 5645 5649 5653 5657 5662 5665 5668 5668 5667 5667 5668 5669 5669 5669 5670 5670 5669 5669 5668 5666 5665 5664 5662 5661 5659 5658 5656 5654 5652 5651 5650 5649 5650 5651 5651 5651 5650 5648 5646 5644
5617 5625 5633 5637 5643 5648 5651 5655 5659 5662 5663 5665 5666 5665 5665 5664 5664 5664 5664 5665 5664 5663 5662 5660 5659 5658 5656 5654 5652 5651 5648 5646 5645 5643 5641 5640 5642 5644 5645 5643 5641 5639 5637
5611 5619 5626 5631 5636 5641 5646 5650 5653 5656 5658 5660 5659 5658 5657 5656 5656 5657 5658 5658 5658 5657 5656 5655 5653 5652 5650 5649 5647 5645 5643 5640 5638 5638 5635 5632 5631 5633 5636 5635 5633 5630 5628
5605 5612 5619 5625 5629 5634 5639 5643 5646 5649 5651 5653 5653 5653 5653 5653 5654 5654 5653 5652 5651 5650 5650 5648 5647 5645 5644 5643 5641 5639 5637 5635 5632 5630 5630 5629 5628 5625 5626 5627 5624 5622 5620
5597 5605 5612 5619 5624 5628 5633 5636 5638 5641 5644 5645 5647 5647 5647 5647 5648 5647 5645 5644 5644 5644 5643 5642 5641 5641 5639 5637 5636 5633 5632 5630 5628 5626 5624 5621 5619 5618 5616 5618 5617 5614 5611
5590 5598 5605 5611 5616 5620 5625 5628 5630 5633 5635 5636 5639 5640 5639 5639 5639 5638 5637 5637 5637 5636 5636 5635 5635 5634 5633 5631 5629 5627 5625 5624 5622 5620 5618 5616 5613 5611 5608 5608 5608 5606 5604
5583 5590 5596 5602 5607 5612 5616 5618 5622 5623 5625 5627 5630 5631 5632 5632 5632 5631 5630 5630 5629 5629 5629 5629 5628 5628 5626 5624 5622 5619 5618 5616 5615 5613 5611 5609 5607 5604 5602 5600 5599 5598 5596
5575 5582 5587 5592 5597 5602 5606 5609 5611 5613 5616 5618 5619 5621 5623 5624 5624 5623 5622 5622 5622 5622 5622 5622 5622 5620 5619 5616 5614 5612 5610 5608 5607 5605 5603 5601 5598 5595 5593 5591 5589 5588 5587
5566 5571 5577 5582 5587 5592 5595 5598 5601 5603 5604 5606 5608 5609 5612 5614 5614 5614 5614 5614 5614 5614 5614 5613 5612 5611 5610 5608 5606 5603 5601 5600 5598 5596 5593 5591 5588 5585 5583 5580 5578 5576 5577
5556 5561 5566 5570 5575 5580 5584 5586 5588 5590 5592 5594 5596 5598 5600 5602 5604 5604 5603 5603 5603 5603 5603 5602 5601 5600 5599 5598 5596 5593 5591 5589 5587 5585 5582 5580 5577 5574 5572 5569 5566 5564 5564
5547 5551 5555 5559 5564 5567 5571 5574 5576 5578 5579 5581 5583 5585 5587 5588 5590 5592 5592 5593 5593 5592 5592 5591 5590 5589 5587 5586 5584 5582 5580 5577 5575 5573 5571 5568 5566 5563 5559 5557 5554 5552 5550
5538 5542 5545 5549 5553 5557 5560 5562 5564 5566 5568 5569 5571 5573 5575 5576 5577 5578 5580 5581 5581 5581 5581 5580 5578 5577 5576 5574 5572 5570 5568 5566 5564 5561 5558 5555 5553 5550 5547 5545 5542 5540 5538
5530 5533 5536 5539 5542 5545 5548 5551 5553 5554 5555 5557 5559 5561 5563 5564 5565 5566 5567 5569 5569 5569 5568 5568 5567 5565 5563 5562 5560 5558 5556 5554 5552 5550 5547 5544 5541 5538 5535 5533 5530 5528 5526
5520 5523 5525 5528 5531 5534 5536 5538 5540 5541 5543 5545 5547 5549 5551 5552 5552 5553 5554 5555 5555 5555 5555 5555 5554 5553 5551 5550 5548 5545 5543 5541 5539 5537 5535 5532 5529 5527 5524 5521 5518 5516 5513
5512 5513 5514 5516 5519 5521 5523 5525 5527 5529 5530 5532 5534 5536 5537 5538 5539 5540 5541 5541 5542 5542 5542 5541 5540 5539 5538 5537 5535 5534 5531 5529 5526 5524 5522 5520 5518 5516 5513 5510 5507 5504 5501
5502 5503 5504 5505 5506 5508 5510 5512 5514 5516 5518 5519 5520 5522 5523 5524 5525 5527 5528 5528 5529 5529 5529 5529 5528 5527 5527 5526 5525 5522 5519 5517 5515 5512 5509 5508 5506 5505 5503 5500 5497 5494 5490
5490 5492 5493 5494 5495 5495 5497 5499 5502 5504 5505 5506 5508 5509 5510 5511 5512 5514 5515 5516 5517 5517 5517 5516 5516 5516 5515 5515 5513 5511 5508 5505 5503 5500 5498 5496 5494 5492 5489 5487 5485 5482 5480
5478 5480 5482 5483 5483 5484 5485 5488 5490 5492 5494 5495 5496 5497 5499 5500 5501 5502 5503 5505 5505 5505 5505 5505 5505 5504 5503 5503 5502 5500 5496 5493 5491 5489 5487 5484 5482 5480 5477 5474 5471 5468 5466
5468 5468 5469 5471 5472 5473 5475 5477 5479 5480 5482 5484 5485 5487 5489 5490 5491 5492 5493 5494 5494 5494 5494 5494 5493 5492 5491 5492 5491 5488 5484 5481 5479 5477 5476 5474 5471 5470 5468 5463 5458 5455 5454
5458 5459 5459 5460 5461 5462 5464 5466 5467 5469 5470 5473 5475 5477 5479 5480 5481 5482 5483 5483 5483 5484 5483 5482 5482 5481 5480 5481 5480 5478 5474 5470 5468 5466 5465 5464 5462 5460 5458 5453 5448 5445 5443
5449 5449 5449 5449 5450 5451 5453 5455 5456 5457 5460 5462 5464 5466 5468 5470 5471 5472 5473 5473 5473 5473 5473 5472 5471 5471 5471 5471 5470 5468 5464 5461 5458 5456 5455 5454 5453 5451 5449 5445 5440 5437 5435
5440 5440 5439 5440 5440 5441 5442 5444 5445 5447 5450 5452 5454 5456 5458 5460 5462 5463 5463 5463 5463 5462 5462 5461 5460 5460 5460 5461 5460 5459 5457 5454 5450 5448 5446 5444 5443 5441 5439 5436 5433 5430 5427
5431 5430 5429 5430 5431 5431 5431 5433 5435 5437 5440 5442 5443 5445 5447 5449 5452 5453 5453 5453 5452 5452 5452 5451 5451 5450 5450 5450 5451 5450 5449 5446 5442 5440 5438 5436 5434 5432 5429 5427 5425 5421 5417
5422 5421 5420 5420 5421 5421 5422 5423 5426 5428 5430 5431 5433 5435 5437 5439 5441 5442 5443 5444 5444 5444 5444 5443 5442 5442 5441 5440 5440 5439 5439 5437 5435 5432 5430 5428 5425 5422 5419 5417 5415 5412 5409
5411 5411 5410 5410 5411 5411 5412 5414 5416 5418 5419 5421 5422 5425 5427 5429 5430 5432 5433 5434 5436 5437 5437 5436 5435 5434 5433 5434 5433 5431 5429 5427 5425 5422 5419 5416 5414 5411 5409 5407 5405 5403 5400
5401 5400 5400 5400 5400 5401 5402 5403 5406 5408 5409 5411 5413 5415 5417 5418 5420 5422 5423 5424 5426 5427 5428 5428 5428 5428 5427 5427 5426 5425 5423 5420 5418 5414 5411 5408 5406 5404 5402 5400 5397 5395 5393